Raton, NM

12:14 AM MDT on August 20, 2017 (GMT -0600)
Raton Municipal-Crews

Weather History for KRTN - June, 2013

Change the Weather History Date:

Sunday, June 30, 2013

  Actual Average (KTAD) Record (KTAD)
Temperature  
Mean Temperature 68 °F -  
Max Temperature 84 °F 88 °F 99 °F (2012)
Min Temperature 53 °F 57 °F 49 °F (1951)
Cooling Degree Days 2    
Growing Degree Days 18 (Base 50)    
Moisture  
Dew Point 53 °F    
Average Humidity 73    
Maximum Humidity 94    
Minimum Humidity 21    
Precipitation  
Precipitation 0.44 in - - ()
Sea Level Pressure  
Sea Level Pressure 30.11 in    
Wind  
Wind Speed 6 mph (East)    
Max Wind Speed 21 mph    
Max Gust Speed 31 mph    
Visibility 8 miles    
Events Rain    
Averages and records for this station are not official NWS values.
T = Trace of Precipitation, MM = Missing Value Source: NWS Daily Summary

Daily Weather History Graph

Daily Weather History Graph

Search for Another Location

Airport or City:

Trip Planner

Search our weather history database for the weather conditions in past years. The results will help you decide how hot, cold, wet, or windy it might be!

Date:

Astronomy

Jun. 30, 2013 Rise Set
Actual Time 5:42 AM MDT 8:20 PM MDT
Civil Twilight 5:11 AM MDT 8:51 PM MDT
Nautical Twilight 4:33 AM MDT 9:29 PM MDT
Astronomical Twilight 3:51 AM MDT 10:11 PM MDT
Moon 12:34 AM MDT (6/30) 1:44 PM MDT (6/30)
Length of Visible Light 15h 39m
Length of Day
14h 38m
Last Quarter, 45% of the Moon is Illuminated
Jun 30
Last Quarter
Jul 8
New
Jul 15
First Quarter
Jul 22
Full
Jul 29
Last Quarter

Hourly Weather History & Observations

Time (MDT) Temp. Dew Point Humidity Pressure Visibility Wind Dir Wind Speed Gust Speed Precip Events Conditions
12:53 AM 57.0 °F 51.1 °F 81% 30.01 in 10.0 mi Calm Calm - N/A   Clear
1:53 AM 59.0 °F 48.0 °F 67% 29.98 in 10.0 mi NNW 8.1 mph - N/A   Clear
2:53 AM 55.0 °F 50.0 °F 83% 30.01 in 10.0 mi East 3.5 mph - N/A   Clear
3:53 AM 53.1 °F 48.9 °F 86% 30.06 in 10.0 mi Calm Calm - N/A   Clear
4:53 AM 55.0 °F 48.0 °F 77% 30.05 in 10.0 mi NNE 3.5 mph - N/A   Clear
5:53 AM 55.0 °F 48.0 °F 77% 30.05 in 10.0 mi ENE 9.2 mph - N/A   Clear
6:53 AM 55.9 °F 48.9 °F 77% 30.05 in 10.0 mi East 5.8 mph - N/A   Clear
7:53 AM 62.1 °F 48.9 °F 62% 30.04 in 10.0 mi NE 3.5 mph - N/A   Clear
8:53 AM 69.1 °F 50.0 °F 51% 30.03 in 10.0 mi ENE 9.2 mph - N/A   Clear
9:53 AM 73.9 °F 51.1 °F 45% 30.01 in 10.0 mi East 8.1 mph - N/A   Clear
10:53 AM 79.0 °F 44.1 °F 29% 29.98 in 10.0 mi SSE 6.9 mph - N/A   Clear
11:53 AM 80.1 °F 46.9 °F 31% 29.97 in 10.0 mi SSW 12.7 mph 18.4 mph N/A   Scattered Clouds
12:53 PM 82.9 °F 45.0 °F 26% 29.94 in 10.0 mi SW 12.7 mph 18.4 mph N/A   Partly Cloudy
1:53 PM 82.9 °F 39.0 °F 21% 29.91 in 10.0 mi East 6.9 mph - N/A   Scattered Clouds
2:53 PM 75.9 °F 57.9 °F 54% 29.96 in 10.0 mi East 19.6 mph - 0.01 in Rain Light Rain
3:53 PM 70.0 °F 60.1 °F 71% 30.00 in 10.0 mi East 17.3 mph - 0.01 in Rain Light Rain
4:53 PM 69.1 °F 60.1 °F 73% 30.03 in 8.0 mi Variable 3.5 mph - 0.03 in Rain Light Rain
5:23 PM 64.4 °F 60.8 °F 88% 30.25 in 1.5 mi East 8.1 mph - 0.06 in Rain Heavy Rain
5:34 PM 64.4 °F 57.2 °F 77% 30.26 in 3.0 mi SE 12.7 mph 19.6 mph 0.18 in Rain Light Rain
5:53 PM 66.0 °F 57.9 °F 75% 30.07 in 10.0 mi East 13.8 mph 25.3 mph 0.18 in Rain Light Rain
6:07 PM 60.8 °F 55.4 °F 82% 30.27 in 2.5 mi SE 20.7 mph 31.1 mph 0.04 in Rain Light Rain
6:14 PM 57.2 °F 55.4 °F 94% 30.27 in 4.0 mi ESE 11.5 mph - 0.07 in Rain Rain
6:53 PM 61.0 °F 57.0 °F 87% 30.10 in 10.0 mi NNW 10.4 mph - 0.08 in Rain Light Rain
7:37 PM 60.8 °F 57.2 °F 88% 30.31 in 2.5 mi NNW 8.1 mph - 0.08 in Rain Rain
7:45 PM 60.8 °F 57.2 °F 88% 30.31 in 4.0 mi Calm Calm - 0.09 in Rain Rain
7:53 PM 61.0 °F 57.9 °F 90% 30.10 in 4.0 mi North 5.8 mph - 0.11 in Rain Rain
8:53 PM 61.0 °F 57.0 °F 87% 30.10 in 10.0 mi NNW 4.6 mph - 0.02 in   Partly Cloudy
9:46 PM 60.8 °F 57.2 °F 88% 30.35 in 10.0 mi SW 8.1 mph - N/A   Mostly Cloudy
9:53 PM 61.0 °F 57.0 °F 87% 30.10 in 10.0 mi WSW 9.2 mph - N/A   Overcast
10:12 PM 60.8 °F 57.2 °F 88% 30.35 in 10.0 mi SW 5.8 mph - N/A   Overcast
10:38 PM 60.8 °F 57.2 °F 88% 30.36 in 10.0 mi WSW 4.6 mph - N/A   Overcast
10:53 PM 61.0 °F 57.0 °F 87% 30.09 in 10.0 mi WSW 3.5 mph - N/A   Overcast
11:29 PM 60.8 °F 57.2 °F 88% 30.36 in 10.0 mi West 3.5 mph - N/A   Overcast
11:53 PM 61.0 °F 57.0 °F 87% 30.09 in 10.0 mi Calm Calm - N/A   Overcast